Tracking 18843 objects as of 21-November-2017
HD Live streaming from Space Station
objects crossing your sky now

PALAPA B1

Track PALAPA B1 now!
PALAPA B1 is classified as:


NORAD ID: 14134
Int'l Code: 1983-059C
Perigee: 35,793.1 km
Apogee: 35,831.9 km
Inclination: 14.9 °
Period: 1,437.1 minutes
Semi major axis: 42183 km
RCS: 1.2604 m2 (large)
Launch date: June 18, 1983
Source: Indonesia (INDO)
Launch site: AIR FORCE EASTERN TEST RANGE (AFETR)
aabbcc
Your satellite tracking list
Your tracking list is empty




NASA's NSSDC Master Catalog

Two Line Element Set (TLE):
1 14134U 83059C   17322.30237515 -.00000189  00000-0  00000+0 0  9997
2 14134  14.8865 356.2666 0004607 303.4078 207.0418  1.00204972 89445
Source of the keplerian elements: AFSPC